When you browse on this site, cookies collect data to enhance your experience and personalize the content and advertising you see.
Visit our Privacy Policy to learn more. By continuing to use the site, you agree to this use of cookies and data.
  • Em Portugal
  • Lista de países
  • Para 7 dias
  • Temperatura da água
  • Mapa do tempo
  • Widgets de tempo
  • user-avatar
    Iniciar Sessão

    Previsão horária em Sumgait

    Hoje, 12 Novembro, Terça-feira

    Tempo Temperatura Precipitação Vento Pressão Humidade
    00:00 +13°C° 0 mm 1 m/s 745 mmHg 73%
    01:00 +12°C° 0 mm 1 m/s 745 mmHg 72%
    02:00 +12°C° 0 mm 1 m/s 745 mmHg 72%
    03:00 +12°C° 0 mm 1 m/s 746 mmHg 71%
    04:00 +11°C° 0 mm 1 m/s 746 mmHg 71%
    05:00 +10°C° 0 mm 0 m/s 746 mmHg 71%
    06:00 +10°C° 0 mm 0 m/s 746 mmHg 71%
    07:00 +11°C° 0 mm 0 m/s 746 mmHg 65%
    08:00 +12°C° 0 mm 0 m/s 747 mmHg 60%
    09:00 +14°C° 0 mm 0 m/s 747 mmHg 54%
    10:00 +15°C° 0 mm 0 m/s 747 mmHg 50%
    11:00 +18°C° 0 mm 1 m/s 747 mmHg 46%
    12:00 +18°C° 0 mm 1 m/s 747 mmHg 43%
    13:00 +19°C° 0 mm 1 m/s 746 mmHg 43%
    14:00 +19°C° 0 mm 1 m/s 746 mmHg 43%
    15:00 +19°C° 0 mm 1 m/s 746 mmHg 43%
    16:00 +18°C° 0 mm 1 m/s 746 mmHg 52%
    17:00 +16°C° 0 mm 1 m/s 747 mmHg 61%
    18:00 +15°C° 0 mm 1 m/s 747 mmHg 70%
    19:00 +14°C° 0 mm 1 m/s 747 mmHg 73%
    20:00 +13°C° 0 mm 0 m/s 747 mmHg 77%
    21:00 +12°C° 0 mm 0 m/s 747 mmHg 80%
    22:00 +12°C° 0 mm 0 m/s 747 mmHg 81%
    23:00 +11°C° 0 mm 0 m/s 747 mmHg 82%

    Amanhã, 13 Novembro, Quarta-feira

    Tempo Temperatura Precipitação Vento Pressão Humidade
    00:00 +11°C° 0 mm 0 m/s 747 mmHg 83%
    01:00 +11°C° 0 mm 0 m/s 746 mmHg 83%
    02:00 +10°C° 0 mm 0 m/s 746 mmHg 83%
    03:00 +10°C° 0 mm 0 m/s 746 mmHg 83%
    04:00 +10°C° 0 mm 0 m/s 746 mmHg 83%
    05:00 +10°C° 0 mm 0 m/s 746 mmHg 84%
    06:00 +9°C° 0 mm 0 m/s 746 mmHg 85%
    07:00 +11°C° 0 mm 1 m/s 746 mmHg 80%
    08:00 +13°C° 0 mm 1 m/s 747 mmHg 75%
    09:00 +14°C° 0 mm 1 m/s 747 mmHg 70%
    10:00 +14°C° 0 mm 2 m/s 747 mmHg 66%
    11:00 +15°C° 0 mm 2 m/s 747 mmHg 62%
    12:00 +16°C° 0 mm 2 m/s 746 mmHg 57%
    13:00 +16°C° 0 mm 3 m/s 746 mmHg 58%
    14:00 +16°C° 0 mm 3 m/s 746 mmHg 59%
    15:00 +15°C° 0 mm 4 m/s 746 mmHg 60%
    16:00 +14°C° 0 mm 3 m/s 746 mmHg 67%
    17:00 +13°C° 0 mm 3 m/s 746 mmHg 73%
    18:00 +13°C° 0 mm 3 m/s 746 mmHg 79%
    19:00 +12°C° 0 mm 3 m/s 746 mmHg 82%
    20:00 +13°C° 0 mm 2 m/s 746 mmHg 84%
    21:00 +13°C° 0 mm 2 m/s 747 mmHg 86%
    22:00 +12°C° 0 mm 2 m/s 746 mmHg 87%
    23:00 +12°C° 0 mm 2 m/s 746 mmHg 88%

    Depois de amanhã, 14 Novembro, Quinta-feira

    Tempo Temperatura Precipitação Vento Pressão Humidade
    00:00 +12°C° 0 mm 2 m/s 746 mmHg 89%
    01:00 +12°C° 0 mm 2 m/s 746 mmHg 89%
    02:00 +10°C° 0 mm 2 m/s 746 mmHg 89%
    03:00 +10°C° 0 mm 2 m/s 746 mmHg 89%
    04:00 +10°C° 0 mm 3 m/s 746 mmHg 88%
    05:00 +10°C° 0 mm 3 m/s 746 mmHg 86%
    06:00 +10°C° 0 mm 3 m/s 746 mmHg 85%
    07:00 +11°C° 0 mm 4 m/s 746 mmHg 80%
    08:00 +11°C° 0 mm 4 m/s 746 mmHg 75%
    09:00 +12°C° 0 mm 5 m/s 747 mmHg 70%
    10:00 +11°C° 0 mm 6 m/s 747 mmHg 68%
    11:00 +13°C° 0 mm 6 m/s 747 mmHg 66%
    12:00 +12°C° 0 mm 7 m/s 746 mmHg 63%
    13:00 +11°C° 0 mm 8 m/s 746 mmHg 65%
    14:00 +11°C° 0 mm 9 m/s 746 mmHg 67%
    15:00 +10°C° 0 mm 9 m/s 746 mmHg 69%
    16:00 +8°C° 0 mm 10 m/s 747 mmHg 70%
    17:00 +8°C° 0 mm 10 m/s 747 mmHg 71%
    18:00 +8°C° 0 mm 11 m/s 747 mmHg 71%
    19:00 +7°C° 0 mm 11 m/s 748 mmHg 70%
    20:00 +7°C° 0 mm 11 m/s 748 mmHg 68%
    21:00 +7°C° 0 mm 11 m/s 748 mmHg 67%
    22:00 +7°C° 0 mm 10 m/s 748 mmHg 67%
    23:00 +7°C° 0 mm 9 m/s 748 mmHg 67%

    15 Novembro, Sexta-feira

    Tempo Temperatura Precipitação Vento Pressão Humidade
    00:00 +6°C° 0 mm 9 m/s 748 mmHg 66%
    01:00 +6°C° 0 mm 8 m/s 748 mmHg 66%
    02:00 +6°C° 0 mm 8 m/s 747 mmHg 65%
    03:00 +6°C° 0 mm 8 m/s 747 mmHg 65%
    04:00 +6°C° 0 mm 8 m/s 747 mmHg 64%
    05:00 +6°C° 0 mm 8 m/s 747 mmHg 63%
    06:00 +6°C° 0 mm 8 m/s 747 mmHg 62%
    07:00 +6°C° 0.2 mm 8 m/s 748 mmHg 62%
    08:00 +7°C° 0.2 mm 9 m/s 748 mmHg 62%
    09:00 +7°C° 0.2 mm 9 m/s 749 mmHg 61%
    10:00 +7°C° 0.6 mm 9 m/s 749 mmHg 64%
    11:00 +7°C° 0.6 mm 9 m/s 749 mmHg 66%
    12:00 +7°C° 0.6 mm 9 m/s 749 mmHg 68%
    13:00 +7°C° 0.6 mm 8 m/s 749 mmHg 71%
    14:00 +6°C° 0.6 mm 7 m/s 748 mmHg 75%
    15:00 +7°C° 0.6 mm 6 m/s 748 mmHg 78%
    16:00 +7°C° 0.1 mm 6 m/s 749 mmHg 78%
    17:00 +7°C° 0.1 mm 6 m/s 749 mmHg 78%
    18:00 +7°C° 0.1 mm 6 m/s 749 mmHg 78%
    19:00 +7°C° 0.2 mm 6 m/s 749 mmHg 77%
    20:00 +7°C° 0.2 mm 6 m/s 749 mmHg 75%
    21:00 +6°C° 0.2 mm 7 m/s 750 mmHg 73%
    22:00 +7°C° 0 mm 6 m/s 749 mmHg 73%
    23:00 +5°C° 0 mm 6 m/s 749 mmHg 73%

    16 Novembro, Sábado

    Tempo Temperatura Precipitação Vento Pressão Humidade
    00:00 +5°C° 0 mm 6 m/s 749 mmHg 73%
    01:00 +5°C° 0 mm 6 m/s 749 mmHg 73%
    02:00 +6°C° 0 mm 5 m/s 749 mmHg 72%
    03:00 +6°C° 0 mm 5 m/s 749 mmHg 72%
    04:00 +6°C° 0 mm 5 m/s 749 mmHg 73%
    05:00 +6°C° 0 mm 4 m/s 750 mmHg 75%
    06:00 +5°C° 0 mm 4 m/s 750 mmHg 77%
    07:00 +6°C° 0 mm 5 m/s 750 mmHg 73%
    08:00 +7°C° 0 mm 5 m/s 750 mmHg 70%
    09:00 +8°C° 0 mm 5 m/s 751 mmHg 66%
    10:00 +8°C° 0 mm 5 m/s 751 mmHg 63%
    11:00 +9°C° 0 mm 5 m/s 751 mmHg 61%
    12:00 +9°C° 0 mm 5 m/s 751 mmHg 58%
    13:00 +9°C° 0 mm 5 m/s 750 mmHg 59%
    14:00 +9°C° 0 mm 5 m/s 750 mmHg 61%
    15:00 +9°C° 0 mm 5 m/s 750 mmHg 62%
    16:00 +9°C° 0 mm 5 m/s 750 mmHg 63%
    17:00 +8°C° 0 mm 5 m/s 750 mmHg 65%
    18:00 +8°C° 0 mm 4 m/s 751 mmHg 67%
    19:00 +8°C° 0 mm 4 m/s 751 mmHg 67%
    20:00 +9°C° 0 mm 3 m/s 751 mmHg 68%
    21:00 +9°C° 0 mm 3 m/s 751 mmHg 69%
    22:00 +9°C° 0 mm 3 m/s 751 mmHg 70%
    23:00 +8°C° 0 mm 2 m/s 751 mmHg 71%

    17 Novembro, Domingo

    Tempo Temperatura Precipitação Vento Pressão Humidade
    00:00 +8°C° 0 mm 2 m/s 751 mmHg 72%
    01:00 +8°C° 0 mm 2 m/s 751 mmHg 71%
    02:00 +8°C° 0 mm 2 m/s 751 mmHg 71%
    03:00 +8°C° 0 mm 2 m/s 750 mmHg 70%
    04:00 +8°C° 0 mm 2 m/s 750 mmHg 70%
    05:00 +9°C° 0 mm 1 m/s 750 mmHg 70%
    06:00 +9°C° 0 mm 1 m/s 750 mmHg 70%
    07:00 +10°C° 0 mm 1 m/s 751 mmHg 65%
    08:00 +11°C° 0 mm 1 m/s 751 mmHg 59%
    09:00 +12°C° 0 mm 1 m/s 752 mmHg 54%
    10:00 +12°C° 0 mm 1 m/s 751 mmHg 54%
    11:00 +13°C° 0 mm 1 m/s 751 mmHg 53%
    12:00 +14°C° 0 mm 1 m/s 751 mmHg 52%
    13:00 +14°C° 0 mm 2 m/s 751 mmHg 54%
    14:00 +14°C° 0 mm 2 m/s 750 mmHg 55%
    15:00 +13°C° 0 mm 3 m/s 750 mmHg 56%
    16:00 +12°C° 0 mm 3 m/s 750 mmHg 61%
    17:00 +13°C° 0 mm 2 m/s 750 mmHg 65%
    18:00 +12°C° 0 mm 2 m/s 750 mmHg 70%
    19:00 +12°C° 0 mm 2 m/s 750 mmHg 72%
    20:00 +10°C° 0 mm 2 m/s 750 mmHg 74%
    21:00 +11°C° 0 mm 1 m/s 750 mmHg 75%
    22:00 +11°C° 0 mm 1 m/s 750 mmHg 76%
    23:00 +10°C° 0 mm 1 m/s 750 mmHg 77%
    Mostrar mais